Edwards AFB North Base, CA

11:15 AM PST on December 14, 2017 (GMT -0800)
Edwards AFB North Base

Weather History for K9L2 - November, 2012

Change the Weather History Date:

Tuesday, November 27, 2012

  Actual Average (KEDW) Record (KEDW)
Temperature  
Mean Temperature 50 °F -  
Max Temperature 68 °F 59 °F 73 °F (1999)
Min Temperature 32 °F 31 °F 20 °F (2010)
Degree Days  
Heating Degree Days 15    
Moisture  
Dew Point 17 °F    
Average Humidity 30    
Maximum Humidity 40    
Minimum Humidity 18    
Precipitation  
Precipitation 0.00 in - - ()
Sea Level Pressure  
Sea Level Pressure 30.15 in    
Wind  
Wind Speed 1 mph (ENE)    
Max Wind Speed 5 mph    
Max Gust Speed -    
Visibility 10 miles    
Events      
Averages and records for this station are not official NWS values.
T = Trace of Precipitation, MM = Missing Value Source: NWS Daily Summary

Daily Weather History Graph

Daily Weather History Graph

Search for Another Location

Airport or City:

Trip Planner

Search our weather history database for the weather conditions in past years. The results will help you decide how hot, cold, wet, or windy it might be!

Date:

Astronomy

Nov. 27, 2012 Rise Set
Actual Time 6:37 AM PST 4:40 PM PST
Civil Twilight 6:10 AM PST 5:08 PM PST
Nautical Twilight 5:39 AM PST 5:39 PM PST
Astronomical Twilight 5:08 AM PST 6:09 PM PST
Moon 4:14 PM PST (11/27) 5:48 AM PST (11/27)
Length of Visible Light 10h 57m
Length of Day
10h 02m
Waxing Gibbous, 99% of the Moon is Illuminated
Nov 27
Waxing Gibbous
Nov 28
Full
Dec 6
Last Quarter
Dec 13
New
Dec 19
First Quarter

Hourly Weather History & Observations

Time (PST) Temp. Windchill Dew Point Humidity Pressure Visibility Wind Dir Wind Speed Gust Speed Precip Events Conditions
12:55 AM 37.0 °F - 10.9 °F 34% 30.14 in 10.0 mi Calm Calm - N/A   Clear
1:55 AM 39.0 °F - 12.0 °F 33% 30.14 in 10.0 mi Calm Calm - N/A   Clear
2:55 AM 37.0 °F - 12.0 °F 36% 30.13 in 10.0 mi Calm Calm - N/A   Clear
3:55 AM 37.0 °F 34.5 °F 12.9 °F 37% 30.14 in 10.0 mi NNW 3.5 mph - N/A   Clear
4:55 AM 37.0 °F - 12.0 °F 36% 30.15 in 10.0 mi Calm Calm - N/A   Clear
5:55 AM 34.0 °F - 10.0 °F 37% 30.18 in 10.0 mi Calm Calm - N/A   Clear
6:55 AM 32.0 °F - 10.0 °F 40% 30.21 in 10.0 mi Calm Calm - N/A   Clear
7:55 AM 36.0 °F - 12.0 °F 37% 30.23 in 10.0 mi Calm Calm - N/A   Clear
8:55 AM 44.1 °F - 14.0 °F 30% 30.24 in 10.0 mi Calm Calm - N/A   Clear
9:55 AM 46.0 °F 44.8 °F 16.0 °F 30% 30.25 in 10.0 mi SSE 3.5 mph - N/A   Clear
10:55 AM 53.1 °F - 19.0 °F 26% 30.21 in 10.0 mi Calm Calm - N/A   Clear
11:55 AM 57.9 °F - 19.9 °F 23% 30.17 in 10.0 mi Calm Calm - N/A   Clear
12:55 PM 66.0 °F - 21.0 °F 18% 30.12 in 10.0 mi NE 3.5 mph - N/A   Clear
1:55 PM 66.9 °F - 21.9 °F 18% 30.09 in 10.0 mi East 3.5 mph - N/A   Clear
2:55 PM 68.0 °F - 24.1 °F 19% 30.09 in 10.0 mi ENE 3.5 mph - N/A   Clear
3:55 PM 66.0 °F - 23.0 °F 20% 30.09 in 10.0 mi ESE 3.5 mph - N/A   Clear
4:55 PM 61.0 °F - 21.9 °F 22% 30.09 in 10.0 mi ENE 4.6 mph - N/A   Clear
5:55 PM 55.0 °F - 19.9 °F 25% 30.12 in 10.0 mi Calm Calm - N/A   Clear
6:55 PM 53.1 °F - 19.0 °F 26% 30.13 in 10.0 mi Calm Calm - N/A   Clear
7:55 PM 50.0 °F - 19.0 °F 29% 30.14 in 10.0 mi Calm Calm - N/A   Clear
8:55 PM 46.0 °F 44.8 °F 18.0 °F 33% 30.14 in 10.0 mi NW 3.5 mph - N/A   Clear
9:55 PM 43.0 °F - 17.1 °F 35% 30.15 in 10.0 mi Calm Calm - N/A   Clear
10:55 PM 39.9 °F - 15.1 °F 36% 30.15 in 10.0 mi Calm Calm - N/A   Clear
11:55 PM 41.0 °F - 17.1 °F 38% 30.14 in 10.0 mi Calm Calm - N/A   Clear